sat.trackr.live / text

‹ back to catalog

STARLINK-36153

NORAD 66934 · 2025-286K

PAYLOAD ACTIVE UNKNOWN

§ Identity

Operator
Country
US
Launch date
2025-12-07
Launch site
AFWTR
Launch vehicle
Mass (kg)
RCS (m²)

Purposes: comms

External: N2YO · Heavens-Above · Gunter

§ Orbital elements

Epoch: 2026-05-25T00:06:23.596992Z

Period
94.11 min
Inclination
53.1621°
Eccentricity
0.0001023
Mean motion
15.30195465 rev/d
Perigee alt
474.5 km
Apogee alt
475.9 km
Semi-major
6,853.4 km
B*
2.6255e-4
RAAN
3.7809°
Arg perigee
89.0161°
Mean anomaly
271.0957°
Rev number
2,710

§ Raw data

STARLINK-361531 66934U 25286K   26145.00443978  .00007424  00000+0  26255-3 0  99932 66934  53.1621   3.7809 0001023  89.0161 271.0957 15.30195465 27106

JSON: /api/v1/satellites/66934 · /tle

For live sub-satellite position, see the globe view (requires WebGL).

§ Visibility from observer

Set your observer location to see the next 7 days of passes ≥ 10°. The values pass through the URL so the page stays shareable.

No JS? Fill the form by hand. The geolocation button needs JavaScript.